DW4669 Weather Reports


Display with metric or nautical units.
time (UTC)temp
F
wind
direction
speed
MPH
gust
MPH
rain 1hr
in
rain 24hr
in
rain mn
in
humidity
%
barometer
mb
20260906021017 62 0 0.0 0.0 0.00 0.00 0.00 92 1012.8
20260906020518 63 0 0.0 0.0 0.00 0.00 0.00 92 1012.7
20260906020039 63 0 0.0 0.0 0.00 0.00 0.00 92 1012.8
20260906015518 63 0 0.0 0.0 0.00 0.00 0.00 92 1012.7
20260906015018 63 0 0.0 0.0 0.00 0.00 0.00 92 1012.4
20260906014537 63 0 0.0 0.0 0.00 0.00 0.00 92 1012.5
20260906014016 63 0 0.0 0.0 0.00 0.00 0.00 92 1012.5
20260906013516 64 0 0.0 0.0 0.00 0.00 0.00 91 1012.5
20260906013034 64 0 0.0 0.0 0.00 0.00 0.00 91 1012.5
20260906012522 64 0 0.0 0.0 0.00 0.00 0.00 91 1012.5
20260906012017 64 0 0.0 0.0 0.00 0.00 0.00 91 1012.3
20260906011539 64 0 0.0 0.0 0.00 0.00 0.00 91 1012.2
20260906011016 65 0 0.0 0.0 0.00 0.00 0.00 90 1012.2
20260906010519 65 0 0.0 0.0 0.00 0.00 0.00 90 1012.2
20260906010039 65 0 0.0 0.0 0.00 0.00 0.00 90 1012.2
20260906005516 65 0 0.0 0.0 0.00 0.00 0.00 89 1012.2
20260906005020 66 0 0.0 0.0 0.00 0.00 0.00 89 1012.0
20260906004537 66 0 0.0 0.0 0.00 0.00 0.00 88 1011.9
20260906004016 66 0 0.0 0.0 0.00 0.00 0.00 88 1011.8
20260906003518 67 0 0.0 0.0 0.00 0.00 0.00 88 1011.7
20260906003036 67 0 0.0 0.0 0.00 0.00 0.00 87 1011.7
20260906002515 67 0 0.0 0.0 0.00 0.00 0.00 86 1011.6
20260906002019 67 0 0.0 0.0 0.00 0.00 0.00 86 1011.6
20260906001535 67 0 0.0 0.0 0.00 0.00 0.00 85 1011.7
20260906001015 68 0 0.0 0.0 0.00 0.00 0.00 85 1011.8
20260906000519 68 0 0.0 0.0 0.00 0.00 0.00 85 1011.7
20260906000034 68 0 0.0 0.0 0.00 0.00 0.00 85 1011.7
20260905235517 68 0 0.0 0.0 0.00 0.00 0.00 84 1011.5
20260905235020 69 0 0.0 0.0 0.00 0.00 0.00 84 1011.4
20260905234534 69 0 0.0 0.0 0.00 0.00 0.00 84 1011.4
20260905234019 69 0 0.0 0.0 0.00 0.00 0.00 83 1011.4
20260905233518 69 0 0.0 0.0 0.00 0.00 0.00 82 1011.3
20260905233042 70 0 0.0 0.0 0.00 0.00 0.00 80 1011.3
20260905232516 70 0 0.0 0.0 0.00 0.00 0.00 79 1011.5
20260905232016 70 0 0.0 1.0 0.00 0.00 0.00 80 1011.4
20260905231536 71 0 0.0 1.0 0.00 0.00 0.00 79 1011.5
20260905231017 71 0 0.0 2.0 0.00 0.00 0.00 78 1011.5
20260905230515 71 0 0.0 3.0 0.00 0.00 0.00 76 1011.5
20260905230045 71 333 0.0 3.0 0.00 0.00 0.00 76 1011.5
20260905225519 71 333 0.0 4.0 0.00 0.00 0.00 76 1011.5
20260905225021 71 0 0.0 4.0 0.00 0.00 0.00 78 1011.4
20260905224549 72 0 0.0 3.0 0.00 0.00 0.00 75 1011.3
20260905224019 72 318 0.0 3.0 0.00 0.00 0.00 74 1011.4
20260905223518 72 0 0.0 4.0 0.00 0.00 0.00 77 1011.3
20260905223035 73 318 0.0 4.0 0.00 0.00 0.00 77 1011.2
20260905222518 73 318 1.0 4.0 0.00 0.00 0.00 75 1011.2
20260905222018 73 0 0.0 3.0 0.00 0.00 0.00 78 1011.1
20260905221539 74 0 0.0 0.0 0.00 0.00 0.00 79 1011.0
20260905221019 74 0 0.0 0.0 0.00 0.00 0.00 79 1010.9
20260905220517 74 0 0.0 0.0 0.00 0.00 0.00 77 1010.8
20260905220040 75 0 0.0 1.0 0.00 0.00 0.00 76 1010.7
20260905215518 75 0 0.0 3.0 0.00 0.00 0.00 76 1010.8
20260905215015 75 0 0.0 3.0 0.00 0.00 0.00 72 1010.9
20260905214535 76 0 0.0 2.0 0.00 0.00 0.00 71 1010.9
20260905214018 76 318 0.0 2.0 0.00 0.00 0.00 70 1010.8
20260905213516 75 0 0.0 2.0 0.00 0.00 0.00 70 1010.7
20260905213035 74 0 0.0 0.0 0.00 0.00 0.00 76 1010.7
20260905212516 74 0 0.0 0.0 0.00 0.00 0.00 76 1010.6
20260905212018 74 0 0.0 0.0 0.00 0.00 0.00 78 1010.7
20260905211534 74 0 0.0 0.0 0.00 0.00 0.00 77 1010.7
20260905211016 74 0 0.0 0.0 0.00 0.00 0.00 77 1010.7
20260905210521 74 0 0.0 0.0 0.00 0.00 0.00 76 1010.7
20260905210035 74 0 0.0 5.0 0.00 0.00 0.00 75 1010.6
20260905205517 75 0 0.0 5.0 0.00 0.00 0.00 74 1010.5
20260905205016 75 326 0.0 4.0 0.00 0.00 0.00 74 1010.6
20260905204533 75 0 0.0 4.0 0.00 0.00 0.00 71 1010.6
20260905204018 75 327 0.0 4.0 0.00 0.00 0.00 72 1010.4
20260905203517 75 0 0.0 4.0 0.00 0.00 0.00 68 1010.5
20260905203037 75 0 0.0 1.0 0.00 0.00 0.00 72 1010.5
20260905202515 76 0 0.0 1.0 0.00 0.00 0.00 73 1010.5
20260905202018 76 0 0.0 4.0 0.00 0.00 0.00 72 1010.5
20260905201542 76 0 0.0 4.0 0.00 0.00 0.00 71 1010.5
20260905201020 76 0 1.0 4.0 0.00 0.00 0.00 67 1010.4
20260905200517 76 0 0.0 3.0 0.00 0.00 0.00 69 1010.4
20260905200038 76 0 0.0 3.0 0.00 0.00 0.00 69 1010.4
20260905195517 76 0 0.0 3.0 0.00 0.00 0.00 70 1010.4
20260905195022 76 304 0.0 3.0 0.00 0.00 0.00 70 1010.4
20260905194538 76 305 0.0 3.0 0.00 0.00 0.00 68 1010.4
20260905194018 76 0 0.0 5.0 0.00 0.00 0.00 68 1010.4
20260905193518 76 0 1.0 5.0 0.00 0.00 0.00 68 1010.4
20260905193033 76 0 0.0 5.0 0.00 0.00 0.00 66 1010.3
20260905192518 77 0 2.0 5.0 0.00 0.00 0.00 65 1010.3
20260905192018 77 0 0.0 3.0 0.00 0.00 0.00 65 1010.3
20260905191536 77 0 0.0 6.0 0.00 0.00 0.00 67 1010.4
20260905191018 77 0 0.0 7.0 0.00 0.00 0.00 68 1010.5
20260905190518 77 314 1.0 7.0 0.00 0.00 0.00 65 1010.4
20260905190035 77 317 0.0 3.0 0.00 0.00 0.00 68 1010.5
20260905185517 77 0 0.0 4.0 0.00 0.00 0.00 69 1010.6
20260905185017 77 0 0.0 4.0 0.00 0.00 0.00 70 1010.5
20260905184541 77 319 0.0 3.0 0.00 0.00 0.00 69 1010.7
20260905184016 77 0 0.0 3.0 0.00 0.00 0.00 67 1010.6
20260905183516 78 0 0.0 4.0 0.00 0.00 0.00 67 1010.6
20260905183033 78 221 1.0 4.0 0.00 0.00 0.00 64 1010.6
20260905182518 77 0 0.0 5.0 0.00 0.00 0.00 65 1010.5
20260905182016 76 281 1.0 5.0 0.00 0.00 0.00 70 1010.6
20260905181550 76 0 2.0 5.0 0.00 0.00 0.00 65 1010.7
20260905181017 76 0 0.0 2.0 0.00 0.00 0.00 70 1010.6
20260905180518 76 0 0.0 2.0 0.00 0.00 0.00 70 1010.6
20260905180036 77 0 0.0 2.0 0.00 0.00 0.00 68 1010.7
20260905175518 77 0 0.0 2.0 0.00 0.00 0.00 65 1010.7
20260905175017 77 169 0.0 1.0 0.00 0.00 0.00 67 1010.7
20260905174547 77 0 0.0 0.0 0.00 0.00 0.00 63 1010.8
20260905174022 78 0 0.0 6.0 0.00 0.00 0.00 67 1010.9
20260905173519 77 0 0.0 6.0 0.00 0.00 0.00 67 1010.8
20260905173035 76 0 0.0 4.0 0.00 0.00 0.00 71 1010.8
20260905172518 76 0 1.0 4.0 0.00 0.00 0.00 71 1010.9
20260905172018 76 0 0.0 5.0 0.00 0.00 0.00 68 1011.0
20260905171541 76 0 0.0 9.0 0.00 0.00 0.00 68 1011.0
20260905171018 76 298 3.0 9.0 0.00 0.00 0.00 64 1010.9
20260905170517 77 336 2.0 7.0 0.00 0.00 0.00 66 1010.9
20260905170035 77 315 1.0 5.0 0.00 0.00 0.00 64 1010.9
20260905165520 77 0 2.0 5.0 0.00 0.00 0.00 65 1011.0
20260905165020 77 0 0.0 1.0 0.00 0.00 0.00 70 1011.1
20260905164537 76 0 0.0 4.0 0.00 0.00 0.00 71 1011.1
20260905164015 75 0 0.0 4.0 0.00 0.00 0.00 70 1011.1
20260905163516 75 313 1.0 5.0 0.00 0.00 0.00 68 1011.1
20260905163035 74 0 1.0 5.0 0.00 0.00 0.00 71 1011.2
20260905162518 74 332 0.0 5.0 0.00 0.00 0.00 70 1011.2
20260905162019 73 315 0.0 5.0 0.00 0.00 0.00 72 1011.2
20260905161534 73 0 0.0 3.0 0.00 0.00 0.00 75 1011.1
20260905161017 73 0 0.0 6.0 0.00 0.00 0.00 73 1011.1
20260905160517 73 317 1.0 8.0 0.00 0.00 0.00 69 1011.1
20260905160105 74 0 2.0 8.0 0.00 0.00 0.00 69 1010.9
20260905155515 74 306 1.0 5.0 0.00 0.00 0.00 70 1011.0
20260905155023 74 315 1.0 5.0 0.00 0.00 0.00 69 1011.0
20260905154535 74 0 2.0 5.0 0.00 0.00 0.00 71 1011.0
20260905154018 73 333 0.0 6.0 0.00 0.00 0.00 74 1011.1
20260905153516 73 346 1.0 6.0 0.00 0.00 0.00 73 1011.0
20260905153033 73 329 0.0 5.0 0.00 0.00 0.00 71 1011.1
20260905152519 73 0 2.0 6.0 0.00 0.00 0.00 72 1011.0
20260905152018 73 0 0.0 6.0 0.00 0.00 0.00 71 1011.1
20260905151537 73 306 1.0 5.0 0.00 0.00 0.00 71 1011.1
20260905151019 73 331 2.0 5.0 0.00 0.00 0.00 71 1011.1
20260905150517 73 0 0.0 6.0 0.00 0.00 0.00 73 1011.2
20260905150036 73 297 3.0 6.0 0.00 0.00 0.00 71 1011.1
20260905145517 73 331 1.0 6.0 0.00 0.00 0.00 72 1011.2
20260905145022 73 333 1.0 8.0 0.00 0.00 0.00 75 1011.1
20260905144534 73 0 2.0 8.0 0.00 0.00 0.00 70 1011.0
20260905144023 73 317 3.0 8.0 0.00 0.00 0.00 73 1011.0
20260905143518 72 308 2.0 7.0 0.00 0.00 0.00 72 1011.1
20260905143036 73 319 2.0 5.0 0.00 0.00 0.00 75 1011.1
20260905142518 72 313 1.0 4.0 0.00 0.00 0.00 74 1011.0
20260905142020 72 0 1.0 5.0 0.00 0.00 0.00 74 1011.2
20260905141540 71 333 1.0 8.0 0.00 0.00 0.00 73 1011.2
20260905141018 72 0 2.0 8.0 0.00 0.00 0.00 74 1011.2
20260905140520 71 281 0.0 5.0 0.00 0.00 0.00 77 1011.0
20260905140038 71 313 1.0 5.0 0.00 0.00 0.00 78 1011.0
20260905135516 70 309 0.0 4.0 0.00 0.00 0.00 79 1011.1
20260905135015 70 0 1.0 4.0 0.00 0.00 0.00 80 1011.1
20260905134536 69 0 0.0 4.0 0.00 0.00 0.00 81 1011.1
20260905134021 69 0 1.0 4.0 0.00 0.00 0.00 82 1011.2
20260905133517 69 0 0.0 4.0 0.00 0.00 0.00 84 1011.1
20260905133034 69 307 0.0 3.0 0.00 0.00 0.00 83 1011.2
20260905132518 68 0 0.0 3.0 0.00 0.00 0.00 84 1011.2
20260905132020 68 0 0.0 5.0 0.00 0.00 0.00 84 1011.3
20260905131534 68 0 0.0 5.0 0.00 0.00 0.00 85 1011.2
20260905131019 67 173 0.0 4.0 0.00 0.00 0.00 87 1011.3
20260905130518 66 0 0.0 4.0 0.00 0.00 0.00 88 1011.5
20260905130035 65 0 0.0 2.0 0.00 0.00 0.00 91 1011.5
20260905125516 64 0 0.0 2.0 0.00 0.00 0.00 91 1011.5
20260905125016 64 173 0.0 5.0 0.00 0.00 0.00 93 1011.5
20260905124539 63 0 0.0 5.0 0.00 0.00 0.00 94 1011.7
20260905124017 63 0 0.0 2.0 0.00 0.00 0.00 96 1011.7
20260905123517 62 0 0.0 2.0 0.00 0.00 0.00 96 1011.7
20260905123037 62 0 0.0 2.0 0.00 0.00 0.00 97 1011.7
20260905122517 62 0 0.0 2.0 0.00 0.00 0.00 98 1011.7
20260905122020 61 173 0.0 2.0 0.00 0.00 0.00 98 1011.7
20260905121535 61 0 0.0 1.0 0.00 0.00 0.00 98 1011.6
20260905121018 61 0 0.0 0.0 0.00 0.00 0.00 98 1011.7
20260905120518 60 0 0.0 0.0 0.00 0.00 0.00 98 1011.7
20260905120034 60 0 0.0 1.0 0.00 0.00 0.00 98 1011.6
20260905115519 60 0 0.0 1.0 0.00 0.00 0.00 98 1011.7
20260905115020 60 0 0.0 2.0 0.00 0.00 0.00 98 1011.6
20260905114535 59 0 0.0 2.0 0.00 0.00 0.00 98 1011.4
20260905114019 59 0 0.0 2.0 0.00 0.00 0.00 98 1011.4
20260905113516 58 0 0.0 1.0 0.00 0.00 0.00 98 1011.3
20260905113035 58 0 0.0 0.0 0.00 0.00 0.00 98 1011.3
20260905112520 57 0 0.0 0.0 0.00 0.00 0.00 98 1011.2
20260905112017 56 0 0.0 0.0 0.00 0.00 0.00 97 1011.2
20260905111536 56 0 0.0 0.0 0.00 0.00 0.00 96 1011.1
20260905111018 56 0 0.0 0.0 0.00 0.00 0.00 96 1011.1
20260905110517 56 0 0.0 0.0 0.00 0.00 0.00 96 1011.0
20260905110034 56 0 0.0 0.0 0.00 0.00 0.00 96 1011.0
20260905105517 56 0 0.0 0.0 0.00 0.00 0.00 96 1011.0
20260905105021 57 0 0.0 0.0 0.00 0.00 0.00 96 1010.8
20260905104537 57 0 0.0 0.0 0.00 0.00 0.00 96 1010.7
20260905104018 57 0 0.0 0.0 0.00 0.00 0.00 96 1010.6
20260905103516 57 0 0.0 0.0 0.00 0.00 0.00 96 1010.7
20260905103044 57 0 0.0 0.0 0.00 0.00 0.00 97 1010.6
20260905102515 57 0 0.0 0.0 0.00 0.00 0.00 97 1010.4
20260905102018 57 0 0.0 0.0 0.00 0.00 0.00 97 1010.4
20260905101535 57 0 0.0 0.0 0.00 0.00 0.00 96 1010.4
20260905101017 57 0 0.0 0.0 0.00 0.00 0.00 96 1010.4
20260905100519 57 0 0.0 0.0 0.00 0.00 0.00 96 1010.4
20260905100036 57 0 0.0 0.0 0.00 0.00 0.00 96 1010.3
20260905095516 57 0 0.0 0.0 0.00 0.00 0.00 96 1010.3
20260905095019 57 0 0.0 0.0 0.00 0.00 0.00 96 1010.3
20260905094537 58 0 0.0 1.0 0.00 0.00 0.00 96 1010.1
20260905094016 58 0 0.0 2.0 0.00 0.00 0.00 96 1010.2
20260905093521 58 0 0.0 2.0 0.00 0.00 0.00 96 1010.2
20260905093034 58 292 0.0 1.0 0.00 0.00 0.00 96 1010.2
20260905092516 58 0 0.0 0.0 0.00 0.00 0.00 96 1010.2
20260905092017 58 0 0.0 0.0 0.00 0.00 0.00 96 1010.1
20260905091609 58 0 0.0 0.0 0.00 0.00 0.00 96 1010.2
20260905091021 58 0 0.0 0.0 0.00 0.00 0.00 96 1010.2
20260905090517 58 0 0.0 0.0 0.00 0.00 0.00 96 1010.2
20260905090036 58 0 0.0 0.0 0.00 0.00 0.00 96 1010.2
20260905085518 58 0 0.0 0.0 0.00 0.00 0.00 96 1010.2
20260905085017 58 0 0.0 0.0 0.00 0.00 0.00 96 1010.2
20260905084534 58 0 0.0 0.0 0.00 0.00 0.00 96 1010.1
20260905084016 58 0 0.0 0.0 0.00 0.00 0.00 96 1010.1
20260905083517 59 0 0.0 0.0 0.00 0.00 0.00 96 1010.0
20260905083035 59 0 0.0 0.0 0.00 0.00 0.00 95 1010.1
20260905082516 59 0 0.0 0.0 0.00 0.00 0.00 95 1010.1
20260905082020 59 0 0.0 0.0 0.00 0.00 0.00 95 1010.1
20260905081536 59 0 0.0 0.0 0.00 0.00 0.00 95 1010.2
20260905081020 59 0 0.0 0.0 0.00 0.00 0.00 95 1010.3
20260905080518 59 0 0.0 0.0 0.00 0.00 0.00 95 1010.3
20260905080042 59 0 0.0 0.0 0.00 0.00 0.00 95 1010.5
20260905075518 59 0 0.0 0.0 0.00 0.01 0.00 95 1010.4
20260905075015 60 0 0.0 0.0 0.00 0.01 0.00 95 1010.3
20260905074539 60 0 0.0 0.0 0.00 0.01 0.00 95 1010.3
20260905074018 60 0 0.0 0.0 0.00 0.01 0.00 95 1010.3
20260905073519 60 0 0.0 0.0 0.00 0.01 0.00 95 1010.3
20260905073035 60 0 0.0 0.0 0.00 0.01 0.00 95 1010.3
20260905072519 60 0 0.0 0.0 0.00 0.01 0.00 95 1010.3
20260905072016 60 0 0.0 0.0 0.00 0.01 0.00 94 1010.3
20260905071552 60 0 0.0 0.0 0.00 0.01 0.00 94 1010.4
20260905071020 61 0 0.0 0.0 0.00 0.01 0.00 94 1010.4
20260905070517 61 0 0.0 0.0 0.00 0.01 0.00 94 1010.3
20260905070037 61 0 0.0 0.0 0.00 0.01 0.00 94 1010.3
20260905065519 61 0 0.0 0.0 0.00 0.30 0.00 94 1010.4
20260905065018 61 0 0.0 0.0 0.00 0.30 0.00 94 1010.4
20260905064538 62 0 0.0 0.0 0.00 0.30 0.00 94 1010.3
20260905064019 62 0 0.0 0.0 0.00 0.30 0.00 94 1010.4
20260905063516 62 0 0.0 0.0 0.00 0.30 0.00 95 1010.4
20260905063037 62 0 0.0 0.0 0.00 0.30 0.00 94 1010.5
20260905062520 62 0 0.0 0.0 0.00 0.30 0.00 93 1010.6
20260905062016 62 0 0.0 0.0 0.00 0.30 0.00 93 1010.5
20260905061552 62 0 0.0 0.0 0.00 0.30 0.00 93 1010.6
20260905061017 63 0 0.0 0.0 0.00 0.30 0.00 93 1010.6
20260905060521 63 0 0.0 0.0 0.00 0.30 0.00 93 1010.7
20260905060035 63 0 0.0 1.0 0.00 0.30 0.00 93 1010.8
20260905055517 63 0 0.0 1.0 0.00 0.30 0.00 93 1010.8
20260905055018 64 0 0.0 1.0 0.00 0.30 0.00 94 1010.7
20260905054534 64 0 0.0 0.0 0.00 0.30 0.00 94 1010.7
20260905054017 64 0 0.0 0.0 0.00 0.30 0.00 94 1010.9
20260905053517 64 0 0.0 0.0 0.00 0.30 0.00 94 1011.0
20260905053035 64 0 0.0 0.0 0.00 0.30 0.00 95 1011.1
20260905052518 64 0 0.0 0.0 0.00 0.30 0.00 95 1011.2
20260905052016 64 0 0.0 0.0 0.00 0.30 0.00 95 1011.2
20260905051539 64 0 0.0 0.0 0.00 0.30 0.00 95 1011.3
20260905051016 64 0 0.0 0.0 0.00 0.30 0.00 95 1011.4
20260905050515 64 0 0.0 0.0 0.00 0.30 0.00 95 1011.4
20260905050036 64 0 0.0 0.0 0.00 0.30 0.00 94 1011.4
20260905045517 64 0 0.0 0.0 0.00 0.30 0.00 95 1011.4
20260905045016 64 0 0.0 0.0 0.00 0.30 0.00 95 1011.4
20260905044538 64 0 0.0 0.0 0.00 0.30 0.00 95 1011.4
20260905044017 64 0 0.0 0.0 0.00 0.30 0.00 95 1011.4
20260905043517 64 0 0.0 0.0 0.00 0.30 0.00 95 1011.3
20260905043037 64 0 0.0 0.0 0.00 0.30 0.00 95 1011.3
20260905042518 64 0 0.0 0.0 0.00 0.30 0.00 95 1011.2
20260905042018 64 0 0.0 0.0 0.00 0.30 0.00 94 1011.2
20260905041534 64 0 0.0 0.0 0.00 0.30 0.00 94 1011.3
20260905041018 64 0 0.0 0.0 0.00 0.30 0.00 94 1011.4
20260905040518 64 0 0.0 0.0 0.00 0.30 0.00 94 1011.5
20260905040040 64 0 0.0 0.0 0.00 0.30 0.00 94 1011.5
20260905035519 64 0 0.0 0.0 0.00 0.30 0.30 94 1011.5
20260905035023 64 0 0.0 0.0 0.00 0.30 0.30 94 1011.5
20260905034543 64 0 0.0 0.0 0.00 0.30 0.30 94 1011.6
20260905034018 64 0 0.0 0.0 0.00 0.30 0.30 94 1011.6
20260905033516 64 0 0.0 0.0 0.00 0.30 0.30 94 1011.6
20260905033036 64 0 0.0 0.0 0.00 0.30 0.30 94 1011.5
20260905032520 65 0 0.0 0.0 0.00 0.30 0.30 94 1011.5
20260905032021 65 0 0.0 0.0 0.00 0.30 0.30 94 1011.5
20260905031534 65 0 0.0 0.0 0.00 0.30 0.30 94 1011.3
20260905031020 65 0 0.0 0.0 0.00 0.30 0.30 95 1011.3
20260905030517 64 0 0.0 0.0 0.00 0.30 0.30 95 1011.4
20260905030038 64 0 0.0 0.0 0.00 0.30 0.30 94 1011.4
20260905025518 64 0 0.0 0.0 0.00 0.30 0.30 94 1011.4
20260905025016 64 0 0.0 0.0 0.00 0.30 0.30 94 1011.5
20260905024535 64 0 0.0 0.0 0.00 0.30 0.30 94 1011.3
20260905024018 64 0 0.0 0.0 0.00 0.30 0.30 94 1011.5
20260905023518 64 0 0.0 0.0 0.00 0.30 0.30 94 1011.6
20260905023037 64 0 0.0 0.0 0.00 0.30 0.30 94 1011.5
20260905022518 64 0 0.0 0.0 0.00 0.30 0.30 94 1011.4
20260905022019 64 0 0.0 0.0 0.00 0.30 0.30 93 1011.4
20260905021536 64 0 0.0 0.0 0.00 0.30 0.30 93 1011.4